Flag for U.S.A. Weather past 2 weeks in Augusta, Maine, U.S.A.

Now
66 °F

Sunny.


Feels Like: 66 °F
Forecast: 55 / 82 °F
Wind: 8 mph from Northwest

Location: Augusta State Airport

Current Time: Jul 24, 2014 at 9:40:29 PM

Latest Report: Jul 24, 2014 at 8:53 PM


Visibility: 10 mi

Pressure: 29.86 "Hg

Humidity: 61%

Dew point: 52 °F

Location of AugustaLocation

Historic Weather in Augusta — Graph

°F

Augusta temperature yesterday

Maximum temperature yesterday: 86 °F (at 11:53 AM)
Minimum temperature yesterday: 65 °F (at 1:53 AM)
Average temperature yesterday: 75 °F

Past Weeks' High & Low Weather Summary

 TemperatureHumidityPressure
High86 °F (Jul 23, 11:53 AM)100% (Jul 14, 4:53 AM)30.29 "Hg (Jul 14, 4:53 AM)
Low55 °F (Jul 11, 3:53 AM)37% (Jul 10, 12:53 PM)29.70 "Hg (Jul 23, 4:53 PM)
Average69 °F76%30.01 "Hg
* Reported Jul 9 7:53 PM — Jul 24 7:53 PM, Augusta, Weather by CustomWeather, © 2014

Note: Actual official high and low records may vary slightly from our data, if they occured in-between our weather recording intervals... More about our weather records

Advertising

Augusta weather history for previous 24 hours

 ConditionsComfort  
Time TempWeatherWind HumidityBarometerVisibility
7:53 PM
Jul 24
69 °FSunny.7 mph59%29.84 "Hg10 mi
6:53 PM73 °FScattered clouds.8 mph51%29.83 "Hg10 mi
5:53 PM76 °FScattered clouds.6 mph50%29.82 "Hg10 mi
4:53 PM75 °FPartly sunny.5 mph54%29.81 "Hg10 mi
3:53 PM75 °FPartly sunny.9 mph52%29.82 "Hg10 mi
2:53 PM76 °FScattered clouds.7 mph50%29.83 "Hg10 mi
1:53 PM75 °FScattered clouds.7 mph52%29.83 "Hg10 mi
12:53 PM74 °FPassing clouds.13 mph53%29.84 "Hg10 mi
11:53 AM72 °FPartly sunny.10 mph64%29.84 "Hg10 mi
10:53 AM68 °FOvercast.9 mph68%29.85 "Hg10 mi
9:53 AM67 °FMostly cloudy.13 mph76%29.84 "Hg10 mi
8:53 AM65 °FOvercast.12 mph85%29.84 "Hg10 mi
7:53 AM65 °FOvercast.10 mph87%29.83 "Hg10 mi
7:02 AM65 °FMostly cloudy.6 mph91%29.82 "Hg10 mi
6:53 AM65 °FLight rain. Cloudy.8 mph91%29.82 "Hg10 mi
6:03 AM65 °FMostly cloudy.10 mph91%29.81 "Hg10 mi
5:53 AM65 °FMostly cloudy.10 mph91%29.80 "Hg10 mi
4:53 AM66 °FOvercast.8 mph93%29.78 "Hg10 mi
3:53 AM67 °FOvercast.10 mph93%29.76 "Hg10 mi
3:04 AM69 °FMostly cloudy.10 mph90%29.76 "Hg10 mi
1:53 AM69 °FPartly cloudy.3 mph96%29.73 "Hg10 mi
12:53 AM70 °FLight rain. Overcast.3 mph93%29.75 "Hg8 mi
11:53 PM
Jul 23
70 °FLight rain. Partly cloudy.3 mph97%29.78 "Hg7 mi
10:53 PM70 °FLight rain. Fog.5 mph97%29.78 "Hg6 mi
9:53 PM70 °FLight rain. Clear.5 mph93%29.76 "Hg8 mi
Weather by CustomWeather, © 2014

See weather overviewHow to use our weather pages